Regional Weather Roundup
Issued by NWS

Home | Current Version | Previous Version | Text Only | Print | Product List | Glossary On
Versions: 1 2 3 4 5 6 7 8 9 10 11 12 13 14 15 16 17 18 19 20 21 22 23 24 25 26 27 28 29 30 31 32 33 34 35 36 37 38 39 40 41 42 43 44 45 46 47 48 49 50
000
ASUS43 KDTX 310510
RWRMI
MICHIGAN HOURLY REGIONAL WEATHER ROUNDUP
NATIONAL WEATHER SERVICE DETROIT/PONTIAC MI
100 AM EDT MON AUG 31 2015

NOTE: "FAIR" INDICATES FEW OR NO CLOUDS BELOW 12,000 FEET WITH NO
SIGNIFICANT WEATHER AND/OR OBSTRUCTION TO VISIBILITY.

MIZ047>049-052>055-059>063-066>070-074>076-081>083-310600-
SOUTHEAST LOWER MICHIGAN

CITY           SKY/WX    TMP DP  RH WIND       PRES   REMARKS
ADRIAN         PTCLDY    65  64  97 CALM      30.06S FOG
ALMA           MOCLDY    65  65  98 SW3       30.04S FOG
ANN ARBOR      PTCLDY    64  63  96 CALM      30.05S FOG
BAD AXE        FOG       60  60  99 CALM      30.03S VSB 1/4
DETROIT CITY   PTCLDY    71  67  87 CALM      30.04R
DETROIT        MOCLDY    71  69  93 CALM      30.05R FOG
FLINT          FOG       66  63  90 CALM      30.05R VSB 3/4
GROSSE ILE     CLEAR     70  66  88 CALM      30.03S FOG
HILLSDALE      FOG       66  66  99 CALM      30.07S VSB<1/4
HOWELL         CLEAR     64  63  97 CALM      30.05S FOG

CITY           SKY/WX    TMP DP  RH WIND       PRES   REMARKS
JACKSON        FOG       64  63  96 SW3       30.06S VSB 3/4
LAMBERTVILLE   CLEAR     68  65  91 CALM      30.06R FOG
LANSING        CLEAR     65  63  93 CALM      30.05S
LAPEER         NOT AVBL
MASON          FOG       62  60  92 S3        30.06R VSB 1/4
MONROE           N/A     67  66  97 CALM      30.04S FOG
MT. CLEMENS    MOCLDY    67  66  97 CALM      30.03R FOG
PONTIAC        CLEAR     65  64  97 CALM      30.05R FOG
PORT HOPE        N/A     66  65  96 SW3       30.00S
PORT HURON     FOG       64  64 100 CALM      30.04R VSB 1/4
TRI CITIES     CLEAR     67  64  90 SW6       30.03S FOG
YPSILANTI      CLEAR     70  65  84 CALM      30.05S HAZE
$$
MIZ043>046-050>051-056>058-064>065-071>073-077>080-310600-
SOUTHWEST LOWER MICHIGAN

CITY           SKY/WX    TMP DP  RH WIND       PRES   REMARKS
BATTLE CREEK   MOCLDY    61  60  97 CALM      30.06S FOG
BENTON HARBOR  FOG       60  60 100 CALM      30.05S VSB 3/4
BIG RAPIDS     PTCLDY    60  60  97 CALM      30.04R FOG
COLDWATER      FOG       64  64 100 CALM      30.07R VSB 1
HOLLAND        FOG       62  59  90 CALM      30.06R VSB 1/4
GRAND RAPIDS   CLOUDY    66  65  96 SW5       30.05S FOG
KALAMAZOO      FOG       62  60  93 CALM      30.06S VSB 1/4
MARSHALL       FOG       62  61  97 CALM      30.06S VSB 1/4
MUSKEGON       PTCLDY    61  58  90 CALM      30.04S FOG
$$
MIZ016>042-310600-
NORTHERN LOWER MICHIGAN

CITY           SKY/WX    TMP DP  RH WIND       PRES   REMARKS
ALPENA         CLEAR     60  59  96 CALM      29.99R
BEAVER ISLAND  CLEAR     65  63  93 SW12      29.98R
BELLAIRE       CLEAR     64  62  93 S3        30.00S
CADILLAC       PTCLDY    61  59  94 SW3       30.04R
CHARLEVOIX     CLEAR     65  62  91 SW6       30.02R
FRANKFORT      CLEAR     66  64  91 SW6       30.02R
GAYLORD        CLEAR     63  63 100 SW6       30.02R
GRAYLING         N/A     61  61  99 CALM      30.03R FOG
HARBOR SPRINGS CLEAR     65  62  89 SW7       29.99S
HOUGHTON LAKE  CLEAR     65  64  97 W3        30.04S
MANISTEE       CLEAR     57  55  94 CALM      30.03R
OSCODA         CLEAR     64  64  99 SW5       29.99S FOG
PELLSTON       CLEAR     64  61  90 SW6       29.98S
TRAVERSE CITY  CLEAR     65  60  84 SW5       30.00R
$$
MIZ007>008-015-310600-
EASTERN UPPER MICHIGAN

CITY           SKY/WX    TMP DP  RH WIND       PRES   REMARKS
KINROSS        CLOUDY    64  63  94 SW7       29.96S
MACKINAC ISLAN PTCLDY    65  63  93 SW10      29.97S
NEWBERRY       CLEAR     63  63  99 SW12      29.95S FOG
S. S. MARIE    CLOUDY    63  61  93 S3        29.95S
$$
MIZ004>006-011>014-085-310600-
CENTRAL UPPER MICHIGAN

CITY           SKY/WX    TMP DP  RH WIND       PRES   REMARKS
MANISTIQUE     CLEAR     62  61  96 S8        29.96R FOG
ESCANABA       CLEAR     63  61  94 CALM      29.95S
MENOMINEE      CLEAR     64  61  88 SW6       29.96S
SAWYER-GWINN   CLEAR     65  62  92 S5        29.95R
$$
MIZ001>003-009>011-084-310600-
WESTERN UPPER MICHIGAN

CITY           SKY/WX    TMP DP  RH WIND       PRES   REMARKS
IRON MOUNTAIN  CLEAR     63  61  93 CALM      29.95S
HOUGHTON       CLEAR     67  61  81 W7        29.90R
IRONWOOD       CLEAR     68  64  88 SW12      29.90R
$$

ABBREVIATIONS USED IN REMARKS
   TC - TEMPERATURE IN CELSIUS
  WCI - WIND CHILL INDEX
   HX - HEAT INDEX
  VSB - VISIBILITY




USA.gov is the U.S. government's official web portal to all federal, state and local government web resources and services.